Home > Weather > Matamoros > Past weeks

Flag for Mexico Past Weather in Matamoros, Tamaulipas, Mexico — Yesterday and Last 2 Weeks

Now
90 °F

Partly sunny.


Feels Like: 100 °F
Forecast: 80 / 90 °F
Wind: 18 mph from Southeast

Location: Brownsville / South Padre Island International Airport

Current Time: Jun 24, 2016 at 7:00:11 PM

Latest Report: Jun 24, 2016 at 5:53 PM


Visibility: 10 mi

Pressure: 29.94 "Hg

Humidity: 61%

Dew Point: 75 °F

Location of MatamorosLocation

Past Weather in Matamoros — Graph

°F

Matamoros Temperature Yesterday

Maximum temperature yesterday: 94 °F (at 1:53 PM)
Minimum temperature yesterday: 74 °F (at 6:53 AM)
Average temperature yesterday: 84 °F

High & Low Weather Summary for the Past Weeks

 TemperatureHumidityPressure
High94 °F (Jun 15, 1:53 PM)97% (Jun 10, 12:53 AM)30.14 "Hg (Jun 10, 12:53 AM)
Low74 °F (Jun 23, 6:53 AM)46% (Jun 21, 1:53 PM)29.81 "Hg (Jun 14, 5:53 PM)
Average84 °F77%29.97 "Hg
* Reported Jun 9 5:53 PM — Jun 24 5:53 PM, Matamoros, Weather by CustomWeather, © 2016

Note: Actual official high and low records may vary slightly from our data, if they occured in-between our weather recording intervals... More about our weather records

Advertising

Matamoros Weather History for the Previous 24 Hours

Scroll right to see more
 ConditionsComfort  
Time TempWeatherWind HumidityBarometerVisibility
5:53 PM
Fri, Jun 24
90 °FPartly sunny.18 mph61%29.94 "Hg10 mi
4:53 PM91 °FPartly sunny.18 mph56%29.96 "Hg10 mi
3:53 PM91 °FScattered clouds.18 mph57%29.97 "Hg10 mi
2:53 PM93 °FPassing clouds.16 mph52%29.98 "Hg10 mi
1:53 PM93 °FSunny.16 mph54%29.99 "Hg10 mi
12:53 PM92 °FSunny.16 mph47%30.00 "Hg10 mi
11:53 AM91 °FPassing clouds.16 mph57%30.03 "Hg10 mi
10:53 AM90 °FScattered clouds.16 mph61%30.02 "Hg10 mi
9:53 AM86 °FPassing clouds.14 mph72%30.03 "Hg10 mi
8:53 AM82 °FSunny.7 mph88%30.02 "Hg10 mi
7:53 AM80 °FSunny.3 mph90%30.00 "Hg10 mi
6:53 AM79 °FClear.6 mph90%29.99 "Hg10 mi
5:53 AM79 °FClear.6 mph90%29.97 "Hg10 mi
4:53 AM78 °FClear.6 mph90%29.97 "Hg10 mi
3:53 AM78 °FPassing clouds.6 mph90%29.96 "Hg10 mi
2:53 AM79 °FPassing clouds.5 mph88%29.97 "Hg10 mi
1:53 AM79 °FClear.6 mph88%29.98 "Hg10 mi
12:53 AM80 °FClear.8 mph85%30.00 "Hg10 mi
11:53 PM
Thu, Jun 23
81 °FClear.8 mph82%30.01 "Hg10 mi
10:53 PM82 °FClear.10 mph79%30.01 "Hg10 mi
9:53 PM82 °FClear.9 mph79%29.99 "Hg10 mi
8:53 PM83 °FSunny.10 mph77%29.98 "Hg10 mi
7:53 PM85 °FSunny.15 mph70%29.98 "Hg10 mi
Weather by CustomWeather, © 2016

See weather overviewHow to use our weather pages